Flag for Germany Weather past 2 weeks in Braunschweig, Lower Saxony, Germany

Now
43 °F

Overcast.


Feels Like: 34 °F
Forecast: 35 / 44 °F
Wind: 20 mph from West

Location: Braunschweig

Current Time: Dec 20, 2014 at 8:33:29 AM

Latest Report: Dec 20, 2014 at 7:50 AM


Visibility: N/A

Pressure: 29.92 "Hg

Humidity: 76%

Dew point: 36 °F

Location of BraunschweigLocation

Historic Weather in Braunschweig — Graph

°F

Braunschweig temperature yesterday

Maximum temperature yesterday: 52 °F (at 6:50 AM)
Minimum temperature yesterday: 43 °F (at 6:50 PM)
Average temperature yesterday: 48 °F

Past Weeks' High & Low Weather Summary

 TemperatureHumidityPressure
High54 °F (Dec 18, 6:50 PM)100% (Dec 4, 10:20 PM)30.36 "Hg (Dec 4, 10:20 PM)
Low34 °F (Dec 4, 10:20 PM)65% (Dec 10, 6:50 AM)29.36 "Hg (Dec 12, 2:20 PM)
Average41 °F90%29.87 "Hg
* Reported Dec 4 10:20 PM — Dec 19 9:50 PM, Braunschweig, Weather by CustomWeather, © 2014

Note: Actual official high and low records may vary slightly from our data, if they occured in-between our weather recording intervals... More about our weather records

Advertising

Braunschweig weather history for previous 24 hours

 ConditionsComfort  
Time TempWeatherWind HumidityBarometerVisibility
9:50 PM
Dec 19
43 °FPassing clouds.16 mph76%29.89 "HgN/A
9:20 PM43 °FPartly cloudy.17 mph76%29.89 "HgN/A
8:50 PM43 °FPartly cloudy.15 mph76%29.89 "HgN/A
8:20 PM45 °FPassing clouds.15 mph76%29.86 "HgN/A
7:50 PM45 °FPassing clouds.13 mph76%29.86 "HgN/A
7:20 PM43 °FPassing clouds.13 mph81%29.86 "HgN/A
6:50 PM43 °FClear.13 mph81%29.83 "Hg10 mi
6:20 PM45 °FClear.14 mph81%29.83 "Hg10 mi
5:50 PM45 °FPassing clouds.15 mph81%29.80 "HgN/A
5:20 PM45 °FPassing clouds.14 mph87%29.80 "HgN/A
4:50 PM46 °FPassing clouds.18 mph82%29.77 "HgN/A
4:20 PM46 °FPartly cloudy.16 mph87%29.77 "HgN/A
3:50 PM48 °FPartly sunny.15 mph87%29.74 "HgN/A
3:20 PM48 °FCloudy.15 mph94%29.74 "HgN/A
2:50 PM48 °FMore clouds than sun.15 mph100%29.71 "HgN/A
2:20 PM48 °FDrizzle. More clouds than sun.14 mph100%29.71 "HgN/A
1:50 PM48 °FMostly cloudy.10 mph100%29.71 "HgN/A
1:20 PM50 °FDrizzle. More clouds than sun.12 mph94%29.71 "Hg4 mi
12:50 PM52 °FHeavy rain. Mostly cloudy.16 mph100%29.68 "Hg3 mi
12:20 PM52 °FDrizzle. More clouds than sun.17 mph100%29.68 "Hg6 mi
11:50 AM52 °FRain. Mostly cloudy.16 mph100%29.68 "Hg5 mi
11:20 AM52 °FRain. Cloudy.17 mph100%29.71 "Hg4 mi
10:50 AM52 °FDrizzle. More clouds than sun.14 mph100%29.71 "Hg4 mi
10:20 AM52 °FDrizzle. Fog.18 mph100%29.71 "Hg3 mi
9:50 AM52 °FDrizzle. More clouds than sun.17 mph100%29.71 "Hg4 mi
9:20 AM52 °FDrizzle. Cloudy.17 mph100%29.71 "Hg4 mi
8:50 AM52 °FMore clouds than sun.17 mph100%29.71 "Hg6 mi
8:20 AM52 °FDrizzle. Mostly cloudy.16 mph100%29.71 "Hg4 mi
Weather by CustomWeather, © 2014

See weather overviewHow to use our weather pages